Weather Roundup
Issued by NWS

Home | Current Version | Previous Version | Text Only | Print | Product List | Glossary On
Versions: 1 2 3 4 5 6 7 8 9 10 11 12 13 14 15 16 17 18 19 20 21 22 23 24 25 26 27 28 29 30 31 32 33 34 35 36 37 38 39 40 41 42 43 44 45 46 47 48 49 50
000
NZUS93 KARX 101710
HRRWXR

CURRENT HOURLY OBSERVATIONS ACROSS
MUCH OF THE UPPER MISSISSIPPI VALLEY
NATIONAL WEATHER SERVICE LA CROSSE WI
1200 PM CDT THU JUL 10 2014


...SOUTHEAST MINNESOTA...


CITY           SKY/WX    TMP DP  RH WIND       PRES   REMARKS
ROCHESTER      PTSUNNY   77  63  61 SW13G18   30.10F
ROCHESTER/MAYO FAIR      77  60  55 W5        30.09S
WINONA         SUNNY     77  63  61 CALM      30.09S
AUSTIN         SUNNY     79  61  53 SW8       30.09S
ALBERT LEA     SUNNY     79  61  53 SW9       30.08S
DODGE CENTER   SUNNY     79  63  57 SW12      30.09S
PRESTON        MOSUNNY   76  63  64 S10       30.12S
OWATONNA       SUNNY     81  61  50 SW12      30.07S
FARIBAULT      SUNNY     82  57  42 S7        30.07S
$$

...ELSEWHERE IN MINNESOTA...


CITY           SKY/WX    TMP DP  RH WIND       PRES   REMARKS
MINNEAPOLIS    MOSUNNY   79  61  53 SE10      30.05S
INTNL FALLS    SUNNY     74  53  48 S9G21     30.00F
DULUTH         MOSUNNY   74  58  57 S10       30.06F
RED WING       SUNNY     79  63  57 SE7       30.05F
REDWOOD FALLS  SUNNY     83  61  47 S17G25    30.00F
MANKATO        SUNNY     81  61  50 SW16      30.05F
WORTHINGTON    SUNNY     77  63  61 S17G23    30.03F
FAIRMONT       SUNNY     79  59  50 SW15G23   30.06F
$$

...SOUTHWEST WISCONSIN...


CITY           SKY/WX    TMP DP  RH WIND       PRES   REMARKS
LA CROSSE      SUNNY     79  62  56 S9        30.09F
PRAIRIE DU CHI SUNNY     77  59  54 S6        30.12S
BOSCOBEL       MOSUNNY   80  60  50 SW10      30.13F
LONE ROCK      MOSUNNY   79  61  53 S8        30.14F
PLATTEVILLE    MOSUNNY   75  61  61 S10       30.17S
FORT MC COY    SUNNY     77  58  52 S12       30.12F
CAMP DOUGLAS   MOSUNNY   77  59  53 SE12      30.12F
VIROQUA        FAIR      74  60  61 SW9       30.14S
WIS DELLS      MOSUNNY   75  54  47 S10       30.15F
$$

...ELSEWHERE IN WISCONSIN...


CITY           SKY/WX    TMP DP  RH WIND       PRES   REMARKS
MILWAUKEE      MOSUNNY   70  59  68 E12       30.20S
MADISON        MOSUNNY   77  55  46 S13       30.17S
GREEN BAY      MOSUNNY   74  53  48 SW9       30.17S
EAU CLAIRE     MOSUNNY   77  59  53 S9        30.08F
BLACK RVR FLS  FAIR      77  58  52 S7        30.11S
MEDFORD        MOSUNNY   72  56  57 S9G17     30.14S
WAUSAU         MOSUNNY   74  53  48 S8        30.14S
WIS RAPIDS     PTSUNNY   77  55  46 SW12      30.15S
MARSHFIELD     SUNNY     74  57  55 S13       30.13F
RICE LAKE      MOSUNNY   75  59  56 SE9       30.10S
$$

...NORTHEAST IOWA...


CITY           SKY/WX    TMP DP  RH WIND       PRES   REMARKS
WATERLOO       SUNNY     80  59  48 S13       30.10F
DUBUQUE        SUNNY     75  60  59 S13       30.16S
DECORAH          N/A    N/A N/A N/A MISG        N/A
MASON CITY     SUNNY     80  60  50 SW15      30.11S
CHARLES CITY   SUNNY     77  63  61 SW10      30.12S
OELWEIN        SUNNY     77  66  69 S13       30.14S
$$

...ELSEWHERE IN IOWA...


CITY           SKY/WX    TMP DP  RH WIND       PRES   REMARKS
DES MOINES     PTSUNNY   80  58  46 S17G23    30.10S
IOWA CITY      SUNNY     78  61  55 S8        30.15S
FORT DODGE     SUNNY     79  61  53 S14       30.10S
MARSHALLTOWN   SUNNY     78  61  55 S14       30.11S
CEDAR RAPIDS   SUNNY     77  60  55 S8        30.13F
$$

...NORTHERN ILLINOIS...


CITY           SKY/WX    TMP DP  RH WIND       PRES   REMARKS
CHICAGO-OHARE  PTSUNNY   79  54  41 NE3       30.18S
DUPAGE         PTSUNNY   78  53  41 S3        30.19R
CHICAGO-MIDWAY MOSUNNY   77  61  57 E9        30.19R
MOLINE         SUNNY     78  60  53 S6        30.15F
ROCKFORD       MOSUNNY   76  56  49 CALM      30.19F
STERLING       PTSUNNY   75  59  57 W6        30.18S
PEORIA         SUNNY     79  59  50 E6        30.17F
$$

NOTE: "FAIR" INDICATES FEW OR NO CLOUDS BELOW 12,000 FEET WITH NO
SIGNIFICANT WEATHER AND/OR OBSTRUCTIONS TO VISIBILITY. WIND
SPEEDS ARE IN MILES-PER-HOUR.



USA.gov is the U.S. government's official web portal to all federal, state and local government web resources and services.